Date String (YYYY-MM-DD hh:mm:ss) UTC,Instrument flags,Ambient pressure (hPa),Sample flow (lpm),Bypass flow (lpm),Sample temperature (°C),Ambient temperature (°C),ASC tube jacket temperature (°C),LED temperature (°C),Box temperature (°C),Sample RH (%),Span deviation,Mass concentration (μg/m³),Mass concentration (μg/m³),Mass concentration (μg/m³)
DateTimeUTC,F1_M11,P_M11,Q1_M11,Q2_M11,T1_M11,T2_M11,T3_M11,T4_M11,T5_M11,U1_M11,ZSPAN_M11,X0_M11,X2_M11,X1_M11
2022-12-26 01:00:00,,0826.1,5.02,0.00,21.5,20.0,00.0,30.4,23.1,15.6,0000.0,0000.85,0000.50,0000.40
2022-12-26 01:01:00,,0826.2,4.98,0.00,21.4,20.0,00.0,30.4,23.1,15.6,0000.0,0000.88,0000.50,0000.40
2022-12-26 01:02:00,,0826.2,4.97,0.00,21.4,20.0,00.0,30.4,23.1,15.7,0000.0,0000.88,0000.50,0000.40
2022-12-26 01:03:00,,0826.2,5.00,0.00,21.5,20.5,00.0,30.3,23.3,15.6,0000.0,0000.88,0000.50,0000.40
2022-12-26 01:04:00,,0826.2,5.02,0.00,21.6,21.5,00.0,30.3,23.6,15.4,0000.0,0000.84,0000.48,0000.39
2022-12-26 01:05:00,,0826.2,5.01,0.00,21.7,21.8,00.0,30.4,23.7,15.3,0000.0,0000.78,0000.48,0000.39
2022-12-26 01:06:00,,0826.3,4.97,0.00,21.7,21.5,00.0,30.4,23.7,15.3,0000.0,0000.73,0000.47,0000.39
2022-12-26 01:07:00,,0826.5,5.00,0.00,21.7,21.2,00.0,30.4,23.6,15.2,0000.0,0000.79,0000.50,0000.40
2022-12-26 01:08:00,,0826.5,5.03,0.00,21.7,21.0,00.0,30.5,23.5,15.4,0000.0,0000.83,0000.52,0000.41
2022-12-26 01:09:00,,0826.5,5.02,0.00,21.7,20.8,00.0,30.5,23.5,15.1,0000.0,0000.91,0000.54,0000.42
2022-12-26 01:10:00,,0826.5,4.98,0.00,21.7,20.7,00.0,30.5,23.5,15.2,0000.0,0000.92,0000.55,0000.42
2022-12-26 01:11:00,,0826.5,4.96,0.00,21.7,20.6,00.0,30.5,23.5,15.4,0000.0,0000.84,0000.53,0000.42
2022-12-26 01:12:00,,0826.5,4.99,0.00,21.7,20.5,00.0,30.5,23.4,15.4,0000.0,0000.78,0000.52,0000.43
2022-12-26 01:13:00,,0826.6,5.02,0.00,21.7,20.4,00.0,30.5,23.3,15.3,0000.0,0000.78,0000.52,0000.43
2022-12-26 01:14:00,,0826.6,5.03,0.00,21.6,20.4,00.0,30.5,23.3,15.4,0000.0,0000.80,0000.52,0000.43
2022-12-26 01:15:00,,0826.6,4.99,0.00,21.6,20.3,00.0,30.5,23.3,15.1,0000.0,0000.82,0000.53,0000.43
2022-12-26 01:16:00,,0826.7,4.97,0.00,21.6,20.2,00.0,30.5,23.3,15.1,0000.0,0000.84,0000.54,0000.44
2022-12-26 01:17:00,,0826.7,4.99,0.00,21.6,20.2,00.0,30.5,23.3,15.6,0000.0,0000.90,0000.56,0000.45
2022-12-26 01:18:00,,0826.7,5.04,0.00,21.6,20.3,00.0,30.5,23.3,15.7,0000.0,0000.87,0000.56,0000.46
2022-12-26 01:19:00,,0826.6,5.02,0.00,21.6,20.2,00.0,30.5,23.3,15.7,0000.0,0000.85,0000.55,0000.46
2022-12-26 01:20:00,,0826.6,4.99,0.00,21.6,20.2,00.0,30.5,23.2,15.8,0000.0,0000.80,0000.54,0000.46
2022-12-26 01:21:00,,0826.5,4.96,0.00,21.6,20.2,00.0,30.5,23.2,15.8,0000.0,0000.78,0000.53,0000.46
2022-12-26 01:22:00,,0826.5,5.00,0.00,21.5,20.2,00.0,30.5,23.2,15.8,0000.0,0000.81,0000.55,0000.46
2022-12-26 01:23:00,,0826.5,5.01,0.00,21.5,20.1,00.0,30.4,23.1,15.9,0000.0,0000.85,0000.56,0000.46
2022-12-26 01:24:00,,0826.5,5.01,0.00,21.5,20.1,00.0,30.4,23.2,15.9,0000.0,0000.89,0000.57,0000.47
2022-12-26 01:25:00,,0826.4,4.99,0.00,21.5,20.1,00.0,30.4,23.2,15.8,0000.0,0000.87,0000.57,0000.47
2022-12-26 01:26:00,,0826.4,4.98,0.00,21.5,20.0,00.0,30.4,23.1,15.9,0000.0,0000.89,0000.58,0000.48
2022-12-26 01:27:00,,0826.5,4.98,0.00,21.5,20.0,00.0,30.4,23.1,16.0,0000.0,0000.91,0000.59,0000.48
2022-12-26 01:28:00,,0826.5,5.02,0.00,21.4,20.0,00.0,30.4,23.0,16.1,0000.0,0000.84,0000.56,0000.48
2022-12-26 01:29:00,,0826.5,5.02,0.00,21.4,20.4,00.0,30.4,23.2,16.0,0000.0,0000.88,0000.58,0000.48
2022-12-26 01:30:00,,0826.6,5.00,0.00,21.6,21.5,00.0,30.3,23.5,15.8,0000.0,0000.88,0000.58,0000.47
2022-12-26 01:31:00,,0826.5,4.95,0.00,21.7,21.8,00.0,30.4,23.7,15.9,0000.0,0000.88,0000.58,0000.48
2022-12-26 01:32:00,,0826.5,5.03,0.00,21.7,21.4,00.0,30.4,23.7,15.8,0000.0,0000.90,0000.59,0000.49
2022-12-26 01:33:00,,0826.5,5.02,0.00,21.7,21.2,00.0,30.5,23.6,15.7,0000.0,0000.92,0000.60,0000.49
2022-12-26 01:34:00,,0826.6,4.97,0.00,21.7,20.9,00.0,30.5,23.5,15.3,0000.0,0000.95,0000.61,0000.50
2022-12-26 01:35:00,,0826.7,4.97,0.00,21.7,20.8,00.0,30.5,23.4,15.5,0000.0,0000.93,0000.61,0000.51
2022-12-26 01:36:00,,0826.7,5.02,0.00,21.7,20.6,00.0,30.5,23.4,15.6,0000.0,0000.95,0000.62,0000.51
2022-12-26 01:37:00,,0826.7,5.02,0.00,21.7,20.5,00.0,30.5,23.4,15.8,0000.0,0000.95,0000.62,0000.51
2022-12-26 01:38:00,,0826.7,5.01,0.00,21.7,20.5,00.0,30.5,23.4,15.9,0000.0,0001.04,0000.61,0000.51
2022-12-26 01:39:00,,0826.7,4.96,0.00,21.7,20.4,00.0,30.5,23.4,15.7,0000.0,0001.08,0000.62,0000.51
2022-12-26 01:40:00,,0826.7,4.96,0.00,21.6,20.3,00.0,30.5,23.4,15.9,0000.0,0001.13,0000.64,0000.51
2022-12-26 01:41:00,,0826.7,5.01,0.00,21.6,20.3,00.0,30.5,23.3,16.0,0000.0,0001.14,0000.64,0000.51
2022-12-26 01:42:00,,0826.7,5.03,0.00,21.6,20.3,00.0,30.5,23.3,16.0,0000.0,0001.13,0000.63,0000.51
2022-12-26 01:43:00,,0826.6,5.00,0.00,21.6,20.2,00.0,30.5,23.3,16.0,0000.0,0001.12,0000.63,0000.51
2022-12-26 01:44:00,,0826.5,5.00,0.00,21.6,20.2,00.0,30.5,23.3,16.2,0000.0,0001.08,0000.62,0000.51
2022-12-26 01:45:00,,0826.6,4.99,0.00,21.6,20.1,00.0,30.5,23.3,16.0,0000.0,0001.05,0000.61,0000.51
2022-12-26 01:46:00,,0826.6,4.96,0.00,21.5,20.1,00.0,30.5,23.2,15.8,0000.0,0001.03,0000.61,0000.51
2022-12-26 01:47:00,,0826.6,5.01,0.00,21.5,20.1,00.0,30.5,23.1,15.6,0000.0,0001.00,0000.59,0000.51
2022-12-26 01:48:00,,0826.7,5.02,0.00,21.5,20.0,00.0,30.4,23.1,15.4,0000.0,0001.02,0000.60,0000.50
2022-12-26 01:49:00,,0826.8,5.01,0.00,21.5,20.0,00.0,30.4,23.1,15.7,0000.0,0000.88,0000.58,0000.49
2022-12-26 01:50:00,,0827.1,5.00,0.00,21.5,20.0,00.0,30.4,23.1,15.6,0000.0,0000.82,0000.56,0000.48
2022-12-26 01:51:00,,0826.9,4.98,0.00,21.4,20.0,00.0,30.4,23.1,15.7,0000.0,0000.72,0000.52,0000.48
2022-12-26 01:52:00,,0827.1,4.98,0.00,21.4,20.2,00.0,30.4,23.2,15.6,0000.0,0000.73,0000.52,0000.48
2022-12-26 01:53:00,,0827.1,5.00,0.00,21.5,21.0,00.0,30.3,23.4,15.5,0000.0,0000.72,0000.51,0000.47
2022-12-26 01:54:00,,0827.1,5.02,0.00,21.6,21.9,00.0,30.3,23.7,15.5,0000.0,0000.70,0000.50,0000.46
2022-12-26 01:55:00,,0827.0,5.01,0.00,21.7,21.8,00.0,30.4,23.7,15.6,0000.0,0000.71,0000.51,0000.46
2022-12-26 01:56:00,,0826.9,4.96,0.00,21.7,21.4,00.0,30.5,23.7,15.7,0000.0,0000.72,0000.51,0000.46
2022-12-26 01:57:00,,0826.8,5.01,0.00,21.7,21.2,00.0,30.5,23.6,15.8,0000.0,0000.72,0000.51,0000.46
2022-12-26 01:58:00,,0826.8,5.02,0.00,21.8,21.1,00.0,30.5,23.6,16.0,0000.0,0000.92,0000.52,0000.47
2022-12-26 01:59:00,,0826.9,5.01,0.00,21.8,20.9,00.0,30.5,23.6,16.1,0000.0,0001.30,0000.53,0000.47
